#timestamp,LO_Frequency,Hit,StdDev 
1676062815.3,286047004.2,N
1676062835.2,286047003.0,N
1676062855.0,286047003.2,N
1676062855.9,286047003.2,N
1676062875.8,286047007.5,Y
1676062895.6,286047005.7,P
1676062915.4,286047004.8,N
1676062935.3,286047005.5,P
1676062955.1,286047003.1,N
1676062975.9,286047003.8,N
1676062995.7,286047004.1,Y
1676063015.5,286046999.4,P
1676063035.4,286046999.4,N
1676063055.2,286046997.6,N
1676063075.0,286046997.8,N
1676063075.9,286046997.8,N
1676063095.8,286046996.4,N
1676063115.6,286046993.3,N
1676063135.5,286046993.3,N
1676063155.3,286046994.4,N
1676063175.1,286046994.4,N
1676063195.9,286046993.4,N
1676063215.7,286046995.8,N
1676063235.5,286046998.0,N
1676063255.4,286046997.2,N
1676063275.2,286046996.2,N
1676063295.1,286046992.0,N
1676063296.0,286046992.0,N
1676063315.8,286046995.7,N
1676063335.6,286046998.0,N
1676063355.5,286046997.2,N
1676063375.3,286046994.5,N
1676063395.1,286046993.3,N
1676063415.9,286046996.4,N
1676063435.7,286046996.0,N
1676063455.6,286046994.6,N
1676063475.4,286046993.5,N
1676063495.2,286046995.9,N
1676063515.1,286046995.9,N
1676063516.0,286046995.9,N
1676063535.8,286046996.1,N
1676063555.6,286046995.5,N
1676063575.5,286046995.2,N
1676063595.3,286046995.7,N
1676063615.2,286046996.3,N
1676063635.9,286046992.9,Y
1676063655.7,286046996.6,P
1676063675.6,286046998.9,N
1676063695.4,286046998.6,N
1676063715.2,286047000.4,N
1676063735.1,286047001.9,N
1676063736.0,286047001.9,N
1676063755.8,286047004.4,N
1676063775.7,286047002.1,N
1676063795.5,286047001.3,N
1676063815.3,286047005.9,N
1676063835.2,286047004.1,N
1676063855.0,286047002.0,N
1676063855.9,286047002.0,N
1676063875.8,286047001.3,N
1676063895.6,286047001.3,N
1676063915.4,286047003.9,N
1676063935.3,286047002.2,N
1676063955.1,286047001.4,N
1676063975.8,286047002.5,N
1676063995.7,286047000.6,N
1676064015.5,286046998.1,N
1676064035.4,286047002.7,N
1676064055.2,286046999.9,N
1676064075.0,286046999.3,N
1676064075.9,286046999.3,N
1676064095.8,286046996.5,N
1676064115.6,286046996.7,N
1676064135.5,286046998.6,N
1676064155.3,286047001.2,N
1676064175.1,286047000.2,N
1676064195.9,286047002.4,N
1676064215.7,286047002.3,N
1676064235.5,286047000.6,N
1676064255.4,286047000.8,N
1676064275.2,286046998.5,N
1676064295.1,286046998.9,N
1676064296.0,286046998.9,N
1676064315.8,286047000.7,N
1676064335.6,286046998.1,N
1676064355.5,286047001.2,N
1676064375.3,286047000.2,N
1676064395.1,286047000.2,N
1676064415.9,286046999.7,N
1676064435.7,286047000.5,N
1676064455.6,286046998.6,N
1676064475.4,286047001.2,N
1676064495.2,286047002.4,N
1676064515.1,286047001.2,N
1676064516.0,286047001.2,N
1676064535.8,286046998.2,N
1676064555.6,286047002.4,N
1676064575.5,286046999.7,N
1676064595.3,286047000.7,N
1676064615.2,286047001.6,N
1676064635.9,286047000.1,N
1676064655.7,286047000.0,N
1676064675.6,286047000.4,N
1676064695.4,286047000.7,N
1676064715.2,286046996.7,N
1676064735.1,286046997.3,N
1676064736.0,286046997.3,N
1676064755.8,286046997.2,N
1676064775.7,286046996.5,N
1676064795.5,286046996.7,N
1676064815.3,286047001.0,N
1676064835.2,286047001.1,N
1676064855.0,286046998.3,N
1676064855.9,286046998.3,N
1676064875.8,286046998.4,N
1676064895.6,286046998.1,N
1676064915.4,286046999.0,N
1676064935.3,286046999.0,N
1676064955.1,286046998.1,N
1676064975.8,286047000.0,N
1676064995.7,286046999.9,N
1676065015.5,286047000.8,N
1676065035.4,286046998.9,N
1676065055.2,286046998.5,N
1676065075.0,286047001.0,N
1676065075.9,286047001.0,N
1676065095.8,286047001.1,N
1676065115.6,286047000.5,N
1676065135.4,286047001.1,N
1676065155.3,286046998.8,N
1676065175.1,286046995.1,Y
1676065195.9,286046998.9,P
1676065215.7,286047000.7,P
1676065235.5,286047000.1,N
1676065255.4,286047002.0,N
1676065275.2,286046999.9,N
1676065295.0,286047001.2,N
1676065295.9,286047001.2,N
1676065315.8,286046998.5,N
1676065335.6,286047000.8,N
1676065355.5,286046996.9,N
1676065375.3,286046999.5,N
1676065395.1,286046998.3,N
1676065415.9,286047000.9,N
1676065435.7,286046999.8,N
1676065455.5,286046998.7,N
1676065475.4,286046998.2,N
1676065495.2,286046999.9,N
1676065515.1,286046998.6,N
1676065516.0,286046998.6,N
1676065535.8,286046996.9,N
1676065555.6,286046999.3,N
1676065575.5,286047000.5,N
1676065595.3,286047000.9,N
1676065615.1,286046998.2,N
1676065635.9,286046998.1,N
1676065655.7,286047000.6,N
1676065675.6,286047002.4,N
1676065695.4,286047000.2,N
1676065715.2,286047004.0,N
1676065735.1,286047003.6,N
1676065736.0,286047003.6,N
1676065755.8,286047002.7,N
1676065775.7,286047002.8,N
1676065795.5,286047005.9,Y
1676065815.3,286047001.6,P
1676065835.2,286047000.6,N
1676065855.0,286046998.6,N
1676065855.9,286046998.6,N
1676065875.7,286047000.7,N
1676065895.6,286047001.0,N
1676065915.4,286046998.7,N
1676065935.3,286047004.0,Y
1676065955.1,286047001.6,P
1676065975.9,286046999.9,N
1676065995.7,286046999.8,N
1676066015.5,286047001.9,N
1676066035.4,286047000.2,N
1676066055.2,286047000.5,N
1676066075.1,286046998.2,N
1676066076.0,286046998.2,N
1676066095.8,286046998.2,N
1676066115.6,286046998.5,N
1676066135.5,286047000.7,N
1676066155.3,286047001.2,N
1676066175.2,286047000.8,N
1676066195.0,286047001.2,N
1676066195.9,286047001.2,N
1676066215.8,286047001.0,N
1676066235.6,286047001.0,N
1676066255.4,286046999.0,N
1676066275.3,286047001.2,N
1676066295.1,286047000.9,N
1676066315.8,286046998.2,N
1676066335.7,286047001.1,N
1676066355.5,286047001.0,N
1676066375.4,286046998.3,N
1676066395.2,286046999.2,N
